This is the latest recevied weather packets stored in our database for station/object VE4GLS. If no packets are shown the sender has not sent any weather packets the latest 1 day(s).
| Time | Temp. | Humidity | Pressure | Rain* | Wind** | Luminosity | Snow |
|---|---|---|---|---|---|---|---|
| 1778025984 | 3.33° C | 60% | 1012.4 hPa | 0 mm | 5.36 m/s, 359° | - | - |
| 1778025756 | 3.33° C | 60% | 1012.5 hPa | 0 mm | 2.24 m/s, 346° | - | - |
| 1778025382 | 3.33° C | 60% | 1012.5 hPa | 0 mm | 3.58 m/s, 350° | - | - |
| 1778024854 | 3.33° C | 61% | 1012.4 hPa | 0 mm | 3.58 m/s, 350° | - | - |
| 1778024782 | 3.33° C | 61% | 1012.4 hPa | 0 mm | 2.68 m/s, 336° | - | - |
| 1778024182 | 3.33° C | 60% | 1012.4 hPa | 0 mm | 5.81 m/s, 333° | - | - |
| 1778023954 | 3.33° C | 59% | 1012.3 hPa | 0 mm | 4.47 m/s, 333° | - | - |
| 1778023582 | 3.33° C | 59% | 1012.3 hPa | 0 mm | 4.02 m/s, 332° | - | - |
| 1778023055 | 3.33° C | 59% | 1012.2 hPa | 0 mm | 5.81 m/s, 348° | - | - |
| 1778022983 | 3.33° C | 59% | 1012.2 hPa | 0 mm | 2.68 m/s, 352° | - | - |
| 1778022382 | 3.89° C | 59% | 1012.1 hPa | 0 mm | 2.68 m/s, 336° | - | - |
| 1778022154 | 3.89° C | 59% | 1012.1 hPa | 0 mm | 6.26 m/s, 354° | - | - |
| 1778021782 | 3.89° C | 58% | 1012.1 hPa | 0 mm | 4.47 m/s, 320° | - | - |
| 1778021254 | 3.89° C | 58% | 1012.1 hPa | 0 mm | 4.47 m/s, 339° | - | - |
| 1778021182 | 3.89° C | 58% | 1012.1 hPa | 0 mm | 6.71 m/s, 335° | - | - |
| 1778020583 | 3.89° C | 58% | 1012 hPa | 0 mm | 7.15 m/s, 355° | - | - |
| 1778020355 | 3.89° C | 57% | 1012.1 hPa | 0 mm | 6.26 m/s, 328° | - | - |
| 1778019984 | 3.89° C | 57% | 1012 hPa | 0 mm | 6.71 m/s, 351° | - | - |
| 1778019456 | 3.89° C | 57% | 1012 hPa | 0 mm | 7.15 m/s, 331° | - | - |
| 1778019384 | 3.89° C | 57% | 1012 hPa | 0 mm | 6.71 m/s, 331° | - | - |
| 1778018783 | 3.89° C | 57% | 1012 hPa | 0 mm | 5.36 m/s, 311° | - | - |
| 1778018555 | 3.89° C | 56% | 1012 hPa | 0 mm | 7.6 m/s, 324° | - | - |
| 1778018183 | 3.89° C | 57% | 1012 hPa | 0 mm | 6.71 m/s, 312° | - | - |
| 1778017655 | 4.44° C | 55% | 1012 hPa | 0 mm | 7.6 m/s, 317° | - | - |
| 1778017583 | 4.44° C | 55% | 1011.9 hPa | 0 mm | 5.81 m/s, 329° | - | - |
* Rain latest hour (hover to see other rain measurements)
** Current wind speed in m/s (hover to see current wind gust speed)